Погода в Сесноке

Австралия     32°49′58″S   151°21′19″E
темп.,
°C
ветер,
м/с
пор.,
м/с
влажн.,
%
обл.,
%
осадки,
мм/ч
давл.,
гПа
погр.,
м
7 мая, пт
пт701:00+16зюз239923 0.3 101085
04:00+16зюз2798100 0.3 1009492
07:00+17юз2899100 1.5 1010536
10:00+18юз269397 2.5 1011671
13:00+20ююз358698 0.8 1009885
16:00+19юз159346 2.8 1009392
19:00+16зюз1198100 0.8 101215
22:00+15зюз119884 0.8 101214
8 мая, сб
сб801:00+14з11986 0.0 101114
04:00+14з129813 0.1 101237
07:00+15сз249936 1.1 1014151
10:00+19сз248463 1.1 1014407
13:00+22ссз236310 0.0 1012874
16:00+20ссз127589 0.1 101368
19:00+16ю1191100 0.4 101511
22:00+15зюз1196100 1.2 101711
9 мая, вс
вс901:00+14з1196100 0.3 101711
04:00+14зюз1197100 0.5 101715
07:00+14з1196100 0.0 101913
10:00+18зсз1187100 0.2 1019263
13:00+22всв1258100 0.0 10171041
16:00+20всв1379100 0.4 1016153
19:00+15вюв1194100 0.0 101811
22:00+14з11965 0.0 101810
10 мая, пн
пн1001:00+13зсз119719 0.0 101715
04:00+12сз239792 0.0 101658
07:00+12зсз239547 0.0 101767
10:00+20сз36615 0.0 1016551
13:00+23сз474812 0.0 10141867
16:00+20зсз2463100 0.0 101499
19:00+15з2273100 0.0 101625
22:00+14з117634 0.0 101816
11 мая, вт
вт1101:00+12з118372 0.1 101811
04:00+11ююз11925 0.0 102013
07:00+13зюз119435 0.3 102121
10:00+18юз117469 0.5 1022557
13:00+19юв1166100 0.3 1020923
16:00+15ююв2495100 3.3 1022203
19:00+14ююз1499100 7.3 1024268
22:00+13ю41197100 20.9 1025762